WGS F7 (USA 263)

Last updated on Sun Jun 21 2026 00:03:06 GMT+0000 (Coordinated Universal Time)

1 40746U 15036A 26170.85629508 .00000000 00000+0 00000+0 0 9993 2 40746 0.0380 50.6595 0000215 162.0382 178.6151 1.00269373 39893
UTC large
Height (km)
Speed (km/s)
/
Latitude / Longitude
Inclination (degrees)
Orbital Period (minutes)
Azimuth
Elevation
Range (km)
Doppler Factor

Next 0 passes for location: London (51.5072 / 0.1276)

No passes found over London.
WGS F7 (USA 263)